Temperature
3 3 3 3 3 3 3 3 3 3 3 4 4 4 4 4 4 4 4 4 4 4 4 4 3 3 3 3 3 3 3 3 3 3 3 3 3 3
2 3 3 3 3 3 3 3 3 3 3 3 3 3 3 3 3 3 3 3 3 3 3 3 3 3 3 2 2 2 2 2 2 2 2 2 2 3
2 2 2 2 2 2 2 2 2 2 2 3 3 3 3 3 3 3 3 3 3 3 3 3 3 2 2 2 2 2 2 2 2 2 2 2 2 2
1 1 2 2 2 2 2 2 2 2 1 2 2 2 2 2 2 2 2 2 2 2 2 2 2 2 1 1 1 1 1 1 1 1 1 1 1 2
1 1 1 1 1 1 1 1 1 1 1 1 1 2 2 2 2 2 2 2 2 2 2 2 2 1 1 1 1 1 1 1 1 1 1 1 1 1
0 0 0 0 0 0 0 0 0 0 0 0 0 1 1 1 1 1 1 1 1 1 1 1 1 1 1 1 1 1 1 1 0 0 0 0 0 0
-0 -0 -0 -0 -0 -0 -0 -0 -0 -0 -0 -0 -0 -0 -0 -0 -0 -0 -0 0 0 0 1 0 0 1 1 0 0 0 0 0 0 -0 -0 -0 -0 -0
-1 -1 -1 -1 -1 -1 -1 -1 -1 -1 -1 -1 -1 -1 -1 -1 -1 -1 -1 -1 -1 -1 -1 -0 -0 0 0 -0 0 0 -0 -0 -0 -0 -1 -1 -0 -1
-1 -1 -1 -1 -1 -1 -1 -2 -2 -2 -2 -2 -2 -1 -1 -1 -2 -2 -2 -2 -2 -1 -1 -1 -1 -1 -0 -0 -0 -0 -1 -1 -1 -1 -1 -1 -1 -1
-2 -2 -2 -2 -2 -2 -2 -2 -2 -2 -2 -2 -2 -2 -2 -2 -2 -2 -2 -2 -2 -2 -2 -2 -1 -1 -1 -1 -1 -1 -1 -1 -1 -1 -1 -1 -1 -1
-2 -2 -2 -2 -2 -2 -3 -3 -2 -2 -2 -2 -2 -2 -2 -2 -3 -3 -3 -3 -3 -2 -3 -3 -2 -2 -1 -1 -1 -1 -2 -2 -2 -2 -2 -2 -2 -2
-3 -3 -3 -3 -3 -3 -3 -3 -3 -3 -3 -3 -3 -3 -3 -3 -3 -3 -3 -3 -4 -4 -3 -3 -3 -3 -3 -2 -2 -2 -2 -2 -2 -2 -2 -2 -2 -2
-3 -3 -3 -3 -3 -3 -3 -3 -3 -3 -3 -3 -3 -3 -3 -3 -3 -3 -3 -4 -4 -4 -4 -4 -4 -4 -4 -4 -3 -2 -3 -3 -3 -2 -2 -2 -2 -3
-3 -3 -3 -3 -3 -3 -3 -3 -3 -4 -3 -4 -4 -3 -3 -3 -3 -4 -4 -4 -4 -4 -4 -4 -4 -4 -5 -4 -4 -3 -3 -3 -3 -3 -3 -3 -3 -3
-4 -4 -4 -4 -4 -4 -4 -4 -4 -4 -4 -4 -4 -4 -4 -4 -4 -4 -4 -4 -4 -4 -4 -5 -5 -5 -5 -5 -4 -4 -4 -3 -3 -3 -3 -3 -3 -3
-4 -4 -4 -4 -4 -4 -4 -4 -4 -4 -4 -4 -4 -4 -4 -4 -4 -5 -4 -4 -4 -4 -5 -5 -5 -5 -4 -4 -4 -4 -4 -4 -4 -4 -4 -4 -4 -4
-4 -4 -4 -4 -4 -4 -5 -5 -5 -5 -5 -5 -5 -5 -5 -5 -5 -5 -5 -5 -5 -5 -5 -4 -5 -5 -4 -4 -4 -4 -4 -4 -4 -4 -4 -4 -4 -4
-5 -5 -5 -5 -5 -5 -5 -5 -5 -5 -5 -5 -5 -5 -5 -5 -5 -5 -5 -5 -5 -5 -5 -5 -5 -5 -4 -4 -5 -5 -5 -5 -4 -4 -4 -4 -4 -4
-5 -5 -5 -5 -5 -5 -5 -5 -5 -5 -6 -5 -5 -6 -6 -6 -6 -6 -6 -6 -6 -6 -6 -6 -6 -6 -6 -6 -5 -5 -5 -5 -5 -5 -5 -5 -5 -4
-5 -5 -6 -6 -6 -6 -6 -6 -6 -6 -6 -6 -6 -6 -6 -6 -6 -6 -6 -6 -6 -6 -6 -6 -6 -6 -6 -6 -6 -5 -5 -5 -5 -5 -5 -5 -5 -5
-6 -6 -6 -6 -6 -6 -6 -6 -6 -6 -6 -6 -6 -6 -6 -6 -6 -7 -7 -7 -6 -6 -6 -6 -6 -6 -6 -6 -6 -6 -5 -5 -6 -5 -5 -5 -5 -5
-6 -6 -6 -6 -6 -6 -6 -6 -6 -6 -7 -7 -7 -7 -7 -7 -7 -7 -7 -7 -7 -7 -6 -6 -6 -6 -6 -6 -6 -6 -6 -5 -5 -6 -6 -6 -6 -6
-7 -7 -7 -6 -6 -6 -6 -6 -6 -7 -7 -7 -7 -7 -7 -7 -7 -7 -7 -7 -7 -7 -6 -6 -6 -6 -6 -6 -6 -6 -6 -6 -6 -6 -6 -6 -6 -6
Wind_Speed
3 3 2 2 2 2 2 3 3 2 3 2 1 1 2 3 3 3 4 5 6 6 6 7 8 8 9 9 9 10 10 9 10 11 11 12 13 14
2 2 3 2 2 2 2 2 3 3 3 2 2 1 2 3 4 4 4 4 5 5 6 7 8 8 8 8 9 10 10 10 10 11 11 12 13 13
3 3 3 3 3 3 2 2 2 3 4 3 2 1 1 2 3 4 4 4 4 6 7 7 8 9 8 8 9 10 10 10 10 11 12 12 13 13
3 3 4 3 3 3 3 3 3 3 4 4 2 2 2 2 1 2 3 4 5 6 6 7 8 8 8 8 9 9 9 9 10 11 11 12 12 13
4 4 4 3 3 3 3 3 3 3 3 3 3 2 1 1 1 1 2 3 4 5 6 6 7 8 8 9 10 10 9 10 10 11 11 12 12 13
3 3 4 4 4 4 4 4 4 3 3 3 3 2 2 1 1 1 2 2 3 4 5 5 7 8 8 9 10 10 10 11 11 10 11 11 12 12
2 3 3 4 5 4 4 4 4 4 3 3 3 2 2 1 2 2 3 3 3 2 2 3 5 5 6 8 9 9 9 10 10 11 11 12 12 12
3 2 3 4 4 5 6 5 5 5 4 4 3 4 4 3 2 2 2 3 3 1 2 4 3 4 5 6 9 9 10 10 11 11 12 12 12 12
2 2 2 2 3 2 4 4 5 5 5 5 5 5 4 4 3 3 3 3 4 3 2 4 3 4 5 8 10 9 10 10 10 11 12 12 13 12
2 2 3 3 3 3 3 3 3 4 4 4 5 5 5 4 4 4 3 3 3 3 2 3 3 4 5 6 9 9 9 9 10 11 11 11 11 11
2 2 3 3 5 4 3 3 3 4 4 5 5 5 5 4 3 1 1 2 4 3 2 2 2 4 4 4 5 7 8 9 10 11 11 11 11 10
2 2 3 3 4 4 3 4 4 4 3 2 2 2 2 3 3 2 3 3 3 3 1 1 2 2 3 3 2 5 6 8 10 11 11 11 11 7
2 2 2 3 4 4 3 3 4 3 2 2 1 1 1 1 2 2 2 3 4 4 2 1 2 2 3 4 3 3 4 4 6 8 9 10 10 7
2 2 2 4 5 5 4 3 4 2 1 1 1 1 1 2 2 2 3 3 4 5 5 4 3 3 3 4 4 3 4 4 5 5 5 8 9 9
2 3 4 4 4 3 3 4 2 1 1 1 2 2 2 2 2 2 2 3 3 4 4 4 3 4 4 4 4 4 4 4 4 3 4 5 4 4
2 3 4 4 3 3 3 2 1 1 1 2 2 2 1 1 2 1 2 2 2 3 3 3 3 3 4 5 4 5 4 3 4 5 5 5 5 4
2 1 2 2 1 2 1 1 1 1 1 1 1 1 2 2 2 2 2 2 2 3 3 2 2 2 4 4 4 4 4 4 4 4 4 5 5 4
2 1 1 1 2 2 2 2 2 1 1 1 1 2 2 2 2 2 2 1 2 2 2 2 2 3 2 2 4 4 3 3 3 4 3 4 5 4
2 1 1 1 2 2 2 2 2 2 2 1 1 1 1 2 2 2 2 2 2 2 3 2 2 2 3 4 3 3 3 3 4 4 3 3 4 5
2 1 1 2 2 2 2 2 2 2 2 1 1 1 1 1 2 2 2 2 2 3 3 2 2 2 3 3 3 3 4 3 3 4 4 4 4 5
2 2 2 2 2 2 2 2 2 2 2 1 2 2 1 1 2 2 2 3 3 2 3 3 3 3 2 1 2 3 3 4 4 3 3 3 3 3
2 2 2 2 2 2 2 2 2 2 2 1 2 2 2 2 2 2 2 3 2 2 3 3 3 2 1 1 3 3 4 4 5 5 4 3 2 2
3 3 3 2 2 2 2 2 2 2 2 2 2 2 2 2 2 2 2 3 2 2 2 2 2 2 1 1 2 3 4 4 4 4 4 6 6 6
Wind_Direction
233 229 231 235 219 215 200 193 190 240 255 242 248 271 320 319 312 323 317 307 302 299 296 294 293 293 292 293 297 294 294 297 299 299 299 299 300 302
234 224 232 231 229 216 206 214 209 213 248 245 237 259 288 307 319 326 307 308 310 304 302 300 299 297 295 296 297 295 292 293 294 296 299 301 301 302
245 234 240 232 228 225 212 212 217 212 244 271 263 280 259 272 315 317 311 304 306 306 306 304 304 300 295 296 299 299 295 294 295 296 299 301 301 303
242 237 243 233 230 228 213 215 223 217 222 257 272 281 266 254 283 300 320 319 311 304 304 302 302 302 301 300 304 305 301 298 297 298 300 301 302 304
233 233 234 225 229 231 221 217 223 225 212 225 257 271 278 293 301 298 303 306 313 308 305 299 300 303 303 302 303 303 302 301 299 298 299 300 302 303
231 231 232 226 225 225 229 223 216 216 217 219 242 260 267 273 260 277 302 292 302 308 311 310 309 308 306 303 303 302 301 299 298 298 300 301 302 302
247 241 238 233 230 229 235 225 214 213 219 225 238 254 256 260 267 280 287 301 294 284 303 306 307 305 304 301 302 301 298 297 296 296 298 298 299 300
243 250 249 248 251 254 261 253 233 220 220 223 235 236 246 247 269 271 285 300 295 290 303 297 293 288 295 295 298 301 301 299 298 296 297 297 298 298
241 244 260 264 266 249 268 273 269 263 248 232 231 236 238 231 235 251 256 274 277 273 291 286 284 280 290 292 297 299 302 305 304 302 300 298 298 299
255 243 248 265 259 239 230 245 254 260 260 246 228 234 241 234 226 241 255 283 279 273 261 274 288 284 296 298 300 305 310 311 311 309 307 306 305 304
271 258 251 255 262 252 234 239 257 266 276 270 266 258 259 265 266 231 253 283 291 282 251 258 283 299 293 286 302 310 313 314 315 313 312 312 311 310
292 280 270 259 266 261 236 230 246 257 254 281 300 300 286 280 277 236 222 249 281 280 242 263 280 313 305 284 295 318 317 312 314 315 313 312 313 315
288 288 282 289 291 288 279 244 249 258 236 232 248 271 281 277 290 286 245 232 249 261 252 253 270 279 274 291 298 298 309 314 316 312 311 311 310 309
283 285 283 291 295 297 293 285 287 294 213 218 251 278 285 282 279 290 287 271 258 257 256 253 257 265 278 286 287 299 306 310 312 310 315 317 315 310
280 285 298 308 317 323 320 315 316 266 229 242 252 268 262 265 279 302 307 305 301 291 270 258 246 256 259 265 275 288 304 305 308 313 321 321 315 313
316 313 322 331 339 337 337 343 347 257 237 248 261 268 280 281 275 279 286 301 308 308 299 277 256 250 260 263 266 279 285 288 306 311 312 314 315 310
323 337 348 345 344 344 340 333 332 337 314 275 269 285 294 294 295 295 288 296 286 294 311 321 330 301 268 260 265 272 282 288 291 304 314 314 314 312
356 3 352 350 344 339 332 331 335 328 312 296 281 271 275 285 299 307 305 290 287 289 295 308 329 336 329 296 250 262 275 285 300 308 307 307 313 320
25 10 345 335 333 330 323 322 319 316 310 298 292 288 282 286 291 300 305 304 298 296 296 294 303 306 310 308 300 272 274 302 311 312 308 304 305 314
15 352 332 331 331 325 320 318 314 317 317 312 306 307 307 298 292 293 294 293 295 300 303 301 288 276 276 280 285 298 300 293 299 303 305 308 303 308
357 352 345 338 333 326 319 312 304 303 309 312 309 307 299 292 289 290 291 295 298 294 295 295 290 296 291 282 294 305 316 316 307 298 301 309 314 328
346 339 335 332 329 321 315 311 314 315 316 315 310 304 293 284 283 287 287 291 294 293 294 301 309 317 304 279 294 303 313 325 335 334 326 313 309 314
336 333 330 329 326 322 321 323 323 321 321 316 306 299 294 290 285 284 286 288 291 297 310 318 331 334 317 286 291 304 316 325 333 344 339 340 332 318
Height
1474 1475 1476 1477 1479 1480 1481 1482 1483 1482 1482 1483 1484 1485 1485 1485 1485 1485 1484 1484 1484 1484 1484 1483 1483 1482 1482 1481 1481 1480 1480 1479 1478 1477 1476 1476 1475 1473
1471 1471 1472 1473 1474 1476 1477 1478 1479 1480 1479 1479 1480 1480 1481 1481 1481 1480 1480 1480 1479 1479 1479 1478 1478 1477 1476 1476 1475 1475 1474 1473 1473 1472 1471 1470 1469 1468
1467 1467 1468 1469 1470 1471 1472 1473 1474 1475 1475 1474 1476 1476 1476 1477 1476 1476 1476 1475 1475 1475 1474 1473 1472 1472 1471 1471 1470 1469 1468 1468 1467 1466 1465 1464 1464 1463
1462 1463 1464 1465 1466 1466 1468 1469 1470 1471 1471 1470 1471 1471 1472 1472 1472 1472 1471 1471 1470 1470 1469 1468 1467 1466 1466 1465 1465 1464 1463 1462 1461 1460 1459 1459 1458 1457
1458 1458 1459 1460 1461 1462 1463 1464 1465 1466 1466 1466 1466 1466 1466 1467 1467 1467 1467 1467 1466 1465 1464 1463 1462 1462 1461 1460 1459 1458 1458 1457 1456 1455 1454 1453 1452 1451
1454 1455 1455 1456 1457 1458 1458 1459 1460 1461 1462 1462 1461 1462 1462 1462 1462 1461 1461 1461 1461 1460 1459 1459 1458 1457 1456 1455 1454 1453 1452 1451 1450 1449 1448 1447 1447 1445
1451 1452 1452 1452 1453 1454 1454 1455 1456 1456 1457 1457 1457 1457 1457 1457 1457 1457 1456 1456 1456 1455 1454 1454 1453 1452 1451 1450 1449 1448 1447 1446 1445 1444 1443 1442 1441 1440
1448 1448 1449 1449 1449 1450 1451 1451 1452 1452 1452 1453 1453 1453 1453 1453 1454 1453 1452 1451 1451 1451 1450 1449 1449 1447 1446 1445 1444 1443 1442 1441 1440 1439 1438 1437 1435 1434
1445 1445 1445 1445 1446 1446 1447 1447 1447 1448 1449 1449 1449 1449 1449 1450 1450 1449 1449 1448 1447 1447 1446 1444 1444 1442 1442 1440 1440 1439 1438 1436 1435 1434 1433 1431 1430 1429
1442 1442 1442 1442 1443 1443 1443 1443 1444 1444 1445 1445 1445 1446 1446 1446 1446 1446 1446 1445 1444 1444 1443 1440 1439 1438 1437 1436 1436 1435 1433 1432 1431 1429 1428 1426 1425 1424
1439 1439 1439 1439 1439 1440 1440 1440 1440 1440 1441 1442 1442 1442 1442 1443 1443 1443 1442 1441 1439 1439 1439 1437 1435 1434 1432 1432 1431 1431 1429 1428 1426 1425 1423 1422 1421 1419
1436 1436 1436 1436 1436 1436 1436 1436 1436 1437 1437 1438 1438 1438 1438 1439 1439 1439 1438 1437 1436 1435 1435 1434 1433 1432 1429 1428 1427 1427 1425 1424 1422 1421 1419 1417 1416 1414
1434 1434 1433 1433 1433 1433 1433 1433 1433 1434 1434 1434 1434 1434 1434 1434 1434 1434 1434 1434 1434 1432 1432 1431 1430 1429 1428 1425 1423 1423 1421 1420 1418 1416 1415 1413 1412 1410
1432 1431 1431 1431 1431 1431 1431 1430 1430 1431 1430 1430 1430 1430 1430 1430 1430 1430 1430 1430 1430 1429 1429 1429 1427 1426 1425 1422 1420 1419 1418 1416 1414 1413 1411 1410 1408 1407
1430 1429 1429 1428 1428 1428 1427 1427 1427 1427 1427 1427 1426 1426 1426 1426 1426 1426 1426 1426 1426 1425 1425 1425 1424 1423 1422 1420 1417 1415 1414 1413 1412 1410 1408 1406 1405 1403
1428 1427 1426 1426 1425 1425 1425 1424 1424 1424 1424 1424 1423 1423 1423 1423 1423 1423 1422 1422 1421 1421 1422 1421 1420 1419 1417 1416 1415 1413 1412 1410 1409 1407 1405 1404 1402 1400
1426 1425 1424 1424 1423 1423 1422 1422 1422 1421 1421 1421 1421 1420 1420 1420 1420 1419 1419 1419 1418 1417 1417 1417 1417 1416 1414 1413 1411 1410 1409 1408 1407 1405 1403 1401 1399 1398
1424 1423 1422 1422 1421 1420 1420 1419 1419 1419 1418 1418 1418 1418 1417 1417 1417 1417 1416 1416 1416 1415 1414 1414 1413 1412 1411 1410 1410 1407 1407 1405 1404 1402 1401 1398 1396 1396
1422 1421 1421 1420 1419 1419 1418 1417 1417 1417 1416 1416 1415 1415 1415 1415 1414 1414 1414 1414 1413 1413 1412 1411 1411 1409 1408 1407 1406 1406 1405 1403 1401 1400 1398 1397 1395 1393
1420 1420 1419 1419 1418 1417 1416 1416 1415 1415 1414 1413 1413 1413 1413 1412 1412 1412 1411 1411 1411 1410 1409 1409 1409 1408 1407 1406 1404 1403 1403 1401 1399 1397 1396 1395 1393 1392
1419 1419 1418 1417 1417 1416 1415 1414 1413 1413 1412 1412 1411 1411 1411 1410 1410 1410 1409 1409 1409 1408 1407 1406 1406 1406 1405 1404 1403 1401 1401 1400 1398 1397 1395 1393 1391 1390
1418 1418 1417 1416 1416 1415 1414 1413 1412 1411 1411 1410 1410 1410 1409 1409 1408 1408 1408 1407 1407 1406 1405 1405 1404 1404 1403 1402 1401 1399 1398 1398 1397 1396 1394 1393 1392 1389
1418 1417 1416 1415 1414 1413 1412 1411 1411 1410 1409 1409 1408 1408 1407 1407 1407 1406 1406 1405 1405 1404 1403 1402 1402 1402 1401 1401 1400 1398 1397 1396 1395 1394 1393 1392 1391 1390